QPF
0.01 0.01 0.06 0.02 0.01 0.02 0.04 0.03 0.03 0.07 0.06 0.03 0.04 0.02 0.14 0.34 0.25 0.20 0.22 0.11 0.14 0.03 0.05 0.04 0.02 0.01 0.00 0.00 0.01 0.00 0.00 0.00 0.00 0.00 0.00 0.00 0.00 0.00 0.00 0.00 0.00 0.00 0.00 0.00 0.00 0.00 0.00 0.00 0.00 0.00 0.00 0.00 0.00 0.00 0.00 0.00 0.00 0.00 0.00 0.00 0.00 0.00 0.01
0.00 0.00 0.00 0.00 0.00 0.01 0.03 0.02 0.05 0.10 0.06 0.01 0.03 0.05 0.01 0.12 0.16 0.14 0.24 0.16 0.19 0.09 0.09 0.07 0.04 0.01 0.00 0.00 0.00 0.00 0.00 0.00 0.00 0.00 0.00 0.00 0.00 0.00 0.00 0.00 0.00 0.00 0.00 0.00 0.00 0.00 0.00 0.00 0.00 0.00 0.00 0.00 0.00 0.00 0.00 0.00 0.00 0.00 0.00 0.00 0.00 0.00 0.00
0.00 0.00 0.00 0.00 0.00 0.00 0.00 0.01 0.01 0.03 0.07 0.07 0.03 0.03 0.02 0.01 0.01 0.19 0.27 0.34 0.19 0.18 0.09 0.19 0.12 0.09 0.01 0.00 0.00 0.00 0.00 0.00 0.00 0.00 0.00 0.00 0.00 0.00 0.00 0.00 0.00 0.00 0.00 0.00 0.00 0.00 0.00 0.00 0.00 0.00 0.00 0.00 0.00 0.00 0.00 0.00 0.00 0.00 0.00 0.00 0.02 0.00 0.02
0.00 0.00 0.00 0.00 0.00 0.00 0.00 0.00 0.00 0.00 0.03 0.04 0.12 0.09 0.02 0.03 0.03 0.03 0.09 0.40 0.39 0.21 0.12 0.20 0.18 0.09 0.01 0.01 0.00 0.00 0.00 0.00 0.00 0.00 0.00 0.00 0.00 0.00 0.00 0.00 0.00 0.00 0.00 0.00 0.00 0.00 0.00 0.00 0.00 0.00 0.00 0.00 0.00 0.00 0.00 0.00 0.00 0.00 0.00 0.02 0.00 0.00 0.01
0.00 0.00 0.00 0.00 0.00 0.00 0.00 0.00 0.00 0.00 0.00 0.01 0.03 0.04 0.14 0.09 0.03 0.01 0.11 0.43 0.29 0.30 0.35 0.11 0.18 0.11 0.12 0.01 0.03 0.02 0.00 0.00 0.00 0.00 0.00 0.00 0.00 0.00 0.00 0.00 0.00 0.00 0.00 0.00 0.00 0.00 0.00 0.00 0.00 0.00 0.00 0.00 0.00 0.00 0.00 0.00 0.00 0.00 0.00 0.02 0.03 0.01 0.06
0.00 0.00 0.00 0.00 0.00 0.00 0.00 0.00 0.00 0.00 0.00 0.00 0.00 0.01 0.02 0.04 0.05 0.03 0.18 0.27 0.19 0.13 0.22 0.10 0.13 0.30 0.06 0.10 0.02 0.02 0.00 0.00 0.00 0.00 0.00 0.00 0.00 0.00 0.00 0.00 0.00 0.00 0.00 0.00 0.00 0.00 0.00 0.00 0.00 0.00 0.00 0.00 0.00 0.00 0.00 0.00 0.00 0.00 0.00 0.00 0.01 0.04 0.06
0.00 0.00 0.00 0.00 0.00 0.00 0.00 0.00 0.00 0.00 0.00 0.00 0.00 0.00 0.00 0.00 0.02 0.04 0.07 0.18 0.09 0.08 0.10 0.09 0.16 0.24 0.07 0.04 0.05 0.01 0.01 0.00 0.00 0.00 0.00 0.00 0.00 0.00 0.00 0.00 0.00 0.00 0.00 0.00 0.00 0.00 0.00 0.00 0.00 0.00 0.00 0.00 0.02 0.00 0.01 0.01 0.01 0.03 0.01 0.02 0.01 0.02 0.02
0.00 0.00 0.00 0.00 0.00 0.00 0.00 0.00 0.00 0.00 0.00 0.00 0.00 0.00 0.00 0.00 0.00 0.01 0.04 0.17 0.04 0.07 0.09 0.05 0.17 0.13 0.17 0.12 0.08 0.01 0.04 0.01 0.00 0.00 0.00 0.00 0.00 0.00 0.00 0.00 0.00 0.00 0.00 0.00 0.00 0.00 0.00 0.00 0.00 0.00 0.00 0.00 0.00 0.00 0.01 0.01 0.00 0.00 0.01 0.02 0.00 0.04 0.01
0.00 0.00 0.00 0.00 0.00 0.00 0.00 0.00 0.00 0.00 0.00 0.00 0.00 0.00 0.00 0.00 0.01 0.01 0.03 0.03 0.07 0.12 0.10 0.05 0.10 0.12 0.12 0.09 0.05 0.01 0.02 0.01 0.01 0.00 0.00 0.00 0.00 0.00 0.00 0.00 0.00 0.00 0.00 0.00 0.00 0.00 0.00 0.00 0.00 0.00 0.00 0.00 0.00 0.00 0.00 0.00 0.01 0.03 0.00 0.00 0.00 0.02 0.03
0.00 0.00 0.00 0.00 0.00 0.00 0.00 0.00 0.00 0.00 0.00 0.00 0.00 0.00 0.01 0.01 0.01 0.01 0.02 0.02 0.09 0.07 0.03 0.03 0.07 0.11 0.04 0.07 0.12 0.11 0.02 0.01 0.01 0.01 0.01 0.00 0.00 0.00 0.00 0.00 0.00 0.00 0.00 0.00 0.00 0.00 0.00 0.00 0.00 0.00 0.00 0.00 0.00 0.00 0.00 0.00 0.00 0.00 0.05 0.00 0.00 0.00 0.00
0.00 0.00 0.00 0.00 0.00 0.00 0.00 0.00 0.00 0.00 0.00 0.00 0.00 0.01 0.01 0.02 0.01 0.02 0.02 0.01 0.02 0.06 0.04 0.02 0.01 0.02 0.08 0.21 0.15 0.09 0.04 0.02 0.03 0.01 0.01 0.00 0.00 0.00 0.00 0.00 0.00 0.00 0.00 0.00 0.00 0.00 0.00 0.00 0.00 0.00 0.00 0.00 0.00 0.00 0.00 0.00 0.00 0.00 0.00 0.00 0.00 0.00 0.00
0.00 0.00 0.00 0.00 0.00 0.00 0.00 0.00 0.00 0.01 0.01 0.01 0.01 0.02 0.01 0.01 0.02 0.01 0.02 0.02 0.02 0.02 0.09 0.06 0.02 0.01 0.01 0.04 0.18 0.08 0.17 0.25 0.08 0.01 0.02 0.01 0.00 0.00 0.00 0.00 0.00 0.00 0.00 0.00 0.00 0.00 0.00 0.00 0.00 0.00 0.00 0.00 0.00 0.00 0.00 0.00 0.00 0.00 0.00 0.00 0.00 0.00 0.00
0.00 0.00 0.00 0.00 0.00 0.00 0.00 0.00 0.01 0.01 0.00 0.00 0.00 0.00 0.00 0.01 0.03 0.02 0.04 0.03 0.03 0.03 0.03 0.10 0.11 0.11 0.02 0.02 0.09 0.12 0.09 0.10 0.05 0.08 0.02 0.01 0.01 0.00 0.00 0.00 0.00 0.00 0.00 0.00 0.00 0.00 0.00 0.00 0.00 0.00 0.00 0.00 0.00 0.00 0.00 0.00 0.00 0.00 0.00 0.00 0.00 0.00 0.00
0.00 0.00 0.00 0.00 0.00 0.00 0.00 0.00 0.00 0.00 0.00 0.00 0.00 0.00 0.00 0.00 0.02 0.01 0.01 0.02 0.03 0.02 0.02 0.05 0.17 0.13 0.07 0.02 0.01 0.03 0.11 0.11 0.07 0.14 0.08 0.12 0.02 0.01 0.00 0.01 0.00 0.00 0.00 0.00 0.00 0.00 0.00 0.00 0.00 0.00 0.00 0.00 0.00 0.02 0.00 0.01 0.00 0.00 0.00 0.03 0.02 0.03 0.01
0.00 0.00 0.00 0.00 0.00 0.00 0.00 0.00 0.00 0.00 0.00 0.00 0.00 0.00 0.00 0.01 0.01 0.01 0.02 0.01 0.02 0.03 0.02 0.02 0.14 0.18 0.17 0.12 0.07 0.02 0.01 0.03 0.09 0.22 0.43 0.37 0.07 0.01 0.01 0.00 0.00 0.00 0.00 0.00 0.00 0.00 0.00 0.00 0.00 0.00 0.00 0.00 0.00 0.00 0.02 0.01 0.00 0.00 0.02 0.01 0.00 0.00 0.00
0.00 0.00 0.00 0.00 0.00 0.00 0.00 0.00 0.00 0.00 0.00 0.00 0.00 0.00 0.00 0.00 0.02 0.03 0.01 0.01 0.01 0.03 0.03 0.03 0.05 0.14 0.22 0.16 0.18 0.07 0.04 0.02 0.07 0.13 0.85 0.64 0.27 0.02 0.00 0.00 0.00 0.00 0.00 0.00 0.00 0.00 0.00 0.00 0.00 0.00 0.00 0.01 0.00 0.02 0.01 0.01 0.00 0.00 0.00 0.00 0.00 0.03 0.00
0.00 0.00 0.00 0.00 0.00 0.00 0.00 0.00 0.00 0.00 0.00 0.00 0.01 0.01 0.00 0.01 0.01 0.01 0.01 0.01 0.01 0.02 0.03 0.02 0.03 0.08 0.24 0.15 0.19 0.36 0.16 0.16 0.16 0.27 0.85 0.36 0.18 0.08 0.01 0.00 0.00 0.00 0.00 0.00 0.00 0.00 0.00 0.00 0.00 0.00 0.00 0.00 0.01 0.01 0.00 0.03 0.01 0.00 0.00 0.00 0.00 0.00 0.01
0.00 0.00 0.00 0.00 0.00 0.00 0.00 0.00 0.00 0.00 0.00 0.00 0.00 0.01 0.01 0.01 0.01 0.01 0.01 0.00 0.00 0.01 0.02 0.02 0.02 0.08 0.11 0.23 0.15 0.28 0.29 0.38 0.31 0.29 0.30 0.32 0.25 0.13 0.29 0.07 0.01 0.00 0.00 0.00 0.00 0.00 0.00 0.00 0.00 0.00 0.00 0.00 0.01 0.00 0.00 0.03 0.00 0.00 0.00 0.00 0.00 0.00 0.01
0.00 0.00 0.00 0.00 0.00 0.00 0.00 0.00 0.00 0.01 0.00 0.01 0.01 0.01 0.01 0.01 0.02 0.02 0.01 0.01 0.00 0.01 0.00 0.02 0.02 0.02 0.03 0.14 0.18 0.22 0.30 0.30 0.26 0.26 0.18 0.17 0.46 0.54 0.69 0.39 0.26 0.08 0.02 0.03 0.00 0.01 0.00 0.00 0.00 0.00 0.00 0.00 0.00 0.00 0.01 0.01 0.00 0.00 0.00 0.00 0.00 0.00 0.00
0.00 0.00 0.00 0.00 0.00 0.00 0.00 0.00 0.00 0.01 0.00 0.01 0.01 0.01 0.01 0.01 0.02 0.02 0.02 0.01 0.01 0.03 0.05 0.04 0.07 0.07 0.05 0.11 0.14 0.18 0.14 0.24 0.18 0.38 0.26 0.10 0.40 0.55 0.36 0.47 0.27 0.34 0.33 0.14 0.11 0.03 0.01 0.03 0.01 0.00 0.00 0.00 0.00 0.00 0.00 0.01 0.00 0.00 0.00 0.00 0.00 0.00 0.00
0.00 0.00 0.00 0.00 0.00 0.00 0.00 0.00 0.00 0.00 0.00 0.01 0.01 0.01 0.01 0.01 0.02 0.01 0.01 0.01 0.01 0.04 0.08 0.03 0.05 0.04 0.09 0.12 0.13 0.11 0.19 0.11 0.36 0.21 0.27 0.52 0.54 0.52 0.79 0.45 0.40 0.37 1.03 0.69 0.99 0.81 0.16 0.15 0.02 0.01 0.01 0.00 0.01 0.01 0.02 0.00 0.00 0.00 0.00 0.00 0.00 0.00 0.00
0.00 0.00 0.00 0.00 0.00 0.00 0.00 0.00 0.00 0.00 0.01 0.00 0.01 0.01 0.01 0.02 0.01 0.01 0.01 0.01 0.04 0.04 0.03 0.02 0.04 0.08 0.08 0.11 0.10 0.10 0.17 0.17 0.22 0.28 0.37 0.40 0.36 0.34 0.63 0.77 0.46 1.19 1.27 0.82 0.77 0.61 0.26 0.57 0.16 0.09 0.03 0.01 0.00 0.03 0.00 0.00 0.00 0.00 0.00 0.00 0.00 0.00 0.00
0.00 0.00 0.00 0.00 0.00 0.00 0.00 0.00 0.00 0.01 0.01 0.01 0.01 0.01 0.01 0.01 0.01 0.01 0.01 0.01 0.01 0.01 0.01 0.01 0.02 0.05 0.06 0.10 0.09 0.11 0.11 0.14 0.31 0.12 0.20 0.29 0.37 0.27 0.42 1.26 1.42 1.28 1.01 0.84 1.12 0.65 0.19 0.25 0.17 0.29 0.22 0.08 0.02 0.04 0.00 0.00 0.00 0.00 0.00 0.00 0.00 0.00 0.00
0.00 0.00 0.00 0.00 0.00 0.00 0.00 0.00 0.01 0.00 0.01 0.01 0.01 0.01 0.01 0.01 0.01 0.01 0.01 0.01 0.01 0.01 0.02 0.02 0.01 0.01 0.04 0.09 0.13 0.11 0.09 0.14 0.27 0.31 0.20 0.17 0.32 0.40 0.89 1.14 1.40 0.88 1.01 0.65 1.08 1.73 1.54 0.68 0.39 0.44 0.54 0.59 0.29 0.07 0.01 0.00 0.00 0.00 0.00 0.00 0.00 0.00 0.02
0.00 0.00 0.00 0.00 0.00 0.00 0.00 0.01 0.00 0.00 0.00 0.00 0.01 0.01 0.00 0.01 0.01 0.01 0.01 0.01 0.01 0.01 0.01 0.01 0.01 0.02 0.01 0.05 0.08 0.20 0.12 0.16 0.24 0.19 0.26 0.25 0.51 0.86 0.86 1.01 1.00 0.68 0.57 0.89 0.89 1.50 1.79 0.66 0.11 0.07 0.04 0.05 0.01 0.01 0.00 0.00 0.00 0.00 0.00 0.00 0.00 0.00 0.04
0.00 0.00 0.00 0.00 0.00 0.00 0.00 0.00 0.00 0.00 0.00 0.00 0.01 0.00 0.00 0.00 0.01 0.01 0.01 0.01 0.01 0.01 0.01 0.01 0.01 0.02 0.03 0.07 0.19 0.06 0.08 0.46 1.38 0.51 0.42 0.46 0.28 0.64 0.86 0.85 1.02 0.63 0.54 0.91 1.44 1.66 0.39 0.25 0.35 0.15 0.11 0.07 0.03 0.02 0.01 0.01 0.01 0.00 0.00 0.00 0.00 0.00 0.03
0.00 0.00 0.00 0.00 0.00 0.00 0.00 0.00 0.00 0.00 0.00 0.00 0.00 0.00 0.00 0.00 0.01 0.01 0.01 0.01 0.01 0.01 0.01 0.01 0.01 0.01 0.02 0.02 0.03 0.08 0.23 0.19 0.33 0.10 0.13 0.32 0.68 0.17 0.43 0.57 0.63 0.44 0.36 1.10 1.05 0.91 0.18 0.18 0.21 0.17 0.15 0.17 0.10 0.07 0.05 0.03 0.02 0.01 0.01 0.01 0.00 0.00 0.04
0.00 0.00 0.00 0.00 0.00 0.00 0.00 0.00 0.00 0.00 0.00 0.00 0.00 0.00 0.00 0.00 0.01 0.01 0.01 0.00 0.00 0.01 0.01 0.01 0.01 0.01 0.01 0.02 0.08 0.29 1.12 0.99 0.39 0.19 0.38 0.62 0.93 0.67 0.80 1.08 1.16 1.00 1.35 1.24 0.88 0.93 0.90 0.37 0.45 0.28 0.20 0.41 0.36 0.15 0.08 0.05 0.03 0.03 0.03 0.03 0.02 0.01 0.00
0.00 0.00 0.00 0.00 0.00 0.00 0.00 0.00 0.00 0.00 0.00 0.00 0.00 0.00 0.00 0.00 0.01 0.01 0.01 0.01 0.01 0.01 0.01 0.01 0.01 0.01 0.01 0.01 0.01 0.07 0.12 0.04 0.17 1.32 0.67 0.83 0.65 0.33 0.97 0.58 0.24 0.24 0.99 0.90 0.85 0.77 0.95 0.49 0.25 0.28 0.38 0.41 0.56 0.41 0.26 0.25 0.17 0.17 0.12 0.07 0.05 0.04 0.03
0.00 0.00 0.00 0.00 0.00 0.00 0.00 0.00 0.00 0.00 0.00 0.00 0.00 0.00 0.00 0.00 0.00 0.00 0.00 0.01 0.01 0.01 0.00 0.00 0.00 0.00 0.00 0.01 0.01 0.02 0.03 0.02 0.02 0.02 0.03 0.04 0.04 0.04 0.05 0.14 0.54 1.04 1.08 1.39 1.52 1.43 1.20 1.44 1.48 1.16 0.96 0.87 0.81 0.83 0.72 0.56 0.42 0.51 0.46 0.31 0.16 0.19 0.22
0.00 0.00 0.00 0.00 0.00 0.00 0.00 0.00 0.00 0.00 0.00 0.00 0.00 0.00 0.00 0.00 0.00 0.00 0.00 0.01 0.00 0.00 0.00 0.00 0.00 0.00 0.00 0.00 0.00 0.01 0.01 0.01 0.01 0.01 0.04 0.02 0.02 0.02 0.03 0.04 0.08 0.18 0.23 0.23 0.26 0.65 0.80 0.94 1.04 1.31 1.65 2.16 1.96 1.68 1.41 1.21 1.18 1.05 0.86 0.59 0.49 0.42 0.37
0.00 0.00 0.00 0.00 0.00 0.00 0.00 0.00 0.00 0.00 0.00 0.00 0.00 0.00 0.03 0.00 0.00 0.00 0.00 0.00 0.00 0.00 0.00 0.00 0.00 0.00 0.00 0.00 0.00 0.00 0.00 0.00 0.00 0.00 0.01 0.01 0.03 0.02 0.03 0.04 0.06 0.11 0.26 0.29 0.26 0.24 0.19 0.20 0.29 0.37 0.48 0.65 0.79 0.98 1.28 1.50 1.68 1.87 2.12 1.84 0.96 0.63 0.56
0.00 0.00 0.00 0.00 0.00 0.00 0.00 0.00 0.00 0.00 0.00 0.00 0.00 0.00 0.01 0.00 0.00 0.00 0.00 0.00 0.00 0.00 0.00 0.00 0.00 0.00 0.00 0.00 0.00 0.00 0.00 0.00 0.00 0.00 0.01 0.02 0.03 0.04 0.05 0.06 0.06 0.07 0.09 0.14 0.21 0.26 0.27 0.27 0.29 0.33 0.41 0.45 0.42 0.54 0.61 0.71 0.78 0.80 0.85 0.86 0.76 0.66 0.55
0.00 0.00 0.00 0.00 0.00 0.00 0.00 0.00 0.00 0.00 0.00 0.00 0.00 0.00 0.04 0.04 0.04 0.07 0.00 0.00 0.00 0.04 0.00 0.00 0.00 0.00 0.00 0.01 0.00 0.00 0.04 0.01 0.00 0.00 0.00 0.01 0.02 0.04 0.05 0.07 0.09 0.10 0.10 0.11 0.13 0.16 0.17 0.18 0.18 0.20 0.27 0.40 0.42 0.45 0.45 0.48 0.49 0.55 0.59 0.76 0.77 0.71 0.87
0.00 0.00 0.00 0.00 0.00 0.00 0.00 0.00 0.00 0.00 0.00 0.00 0.00 0.00 0.00 0.02 0.06 0.03 0.00 0.00 0.00 0.00 0.00 0.00 0.00 0.00 0.00 0.00 0.01 0.02 0.00 0.01 0.02 0.03 0.02 0.00 0.00 0.00 0.01 0.02 0.03 0.05 0.09 0.12 0.13 0.12 0.13 0.13 0.15 0.18 0.20 0.24 0.30 0.27 0.33 0.54 0.62 0.60 0.72 0.46 0.52 0.53 0.49
0.00 0.01 0.00 0.00 0.00 0.00 0.00 0.00 0.00 0.00 0.00 0.00 0.00 0.00 0.00 0.01 0.08 0.01 0.00 0.00 0.01 0.01 0.00 0.01 0.01 0.00 0.00 0.00 0.00 0.00 0.00 0.00 0.01 0.01 0.00 0.00 0.00 0.00 0.00 0.00 0.01 0.01 0.02 0.04 0.05 0.05 0.05 0.05 0.06 0.07 0.08 0.10 0.12 0.13 0.16 0.19 0.20 0.16 0.10 0.09 0.07 0.07 0.08
0.00 0.02 0.01 0.01 0.00 0.00 0.00 0.00 0.00 0.00 0.00 0.00 0.00 0.00 0.00 0.00 0.01 0.06 0.00 0.00 0.00 0.00 0.01 0.01 0.00 0.01 0.01 0.00 0.00 0.00 0.00 0.00 0.00 0.00 0.00 0.00 0.00 0.00 0.00 0.01 0.02 0.02 0.02 0.02 0.02 0.02 0.02 0.02 0.02 0.01 0.01 0.01 0.01 0.01 0.01 0.01 0.01 0.01 0.00 0.00 0.00 0.00 0.00
0.00 0.00 0.01 0.01 0.01 0.00 0.00 0.00 0.00 0.00 0.00 0.00 0.00 0.00 0.00 0.01 0.01 0.02 0.05 0.00 0.00 0.00 0.00 0.00 0.00 0.00 0.00 0.00 0.00 0.00 0.00 0.00 0.00 0.00 0.00 0.00 0.00 0.00 0.00 0.00 0.01 0.03 0.02 0.00 0.00 0.00 0.00 0.00 0.00 0.00 0.00 0.00 0.00 0.00 0.00 0.00 0.00 0.00 0.00 0.00 0.00 0.00 0.00
MSLP
1009.40 1009.88 1009.88 1010.16 1010.56 1010.56 1010.56 1010.52 1010.36 1010.48 1010.84 1010.88 1010.72 1010.36 1010.52 1010.84 1010.96 1011.16 1011.32 1011.32 1011.64 1011.68 1011.32 1011.52 1011.44 1011.32 1011.36 1011.40 1011.36 1011.44 1011.48 1011.64 1011.76 1011.96 1011.96 1011.88 1011.72 1011.72 1011.92 1011.80 1011.84 1011.84 1011.76 1012.04 1012.00 1011.84 1011.60 1011.36 1011.52 1011.72 1011.80 1012.08 1012.32 1012.44 1012.56 1012.60 1012.84 1013.00 1013.16 1013.32 1013.56 1013.76 1013.92
1009.72 1009.64 1009.72 1009.76 1010.20 1010.48 1010.44 1010.44 1010.48 1010.52 1010.80 1010.92 1010.80 1010.76 1010.68 1011.16 1011.20 1011.44 1011.52 1011.52 1011.44 1011.48 1011.40 1011.36 1011.68 1011.32 1011.28 1011.24 1011.12 1011.24 1011.44 1011.40 1011.44 1011.48 1011.56 1011.60 1011.44 1011.36 1011.24 1011.36 1011.44 1011.60 1011.44 1011.36 1011.48 1011.44 1011.36 1011.36 1011.32 1011.48 1011.64 1011.84 1012.08 1012.16 1012.36 1012.52 1012.72 1012.96 1013.08 1013.20 1013.52 1013.72 1013.76
1009.92 1009.92 1010.16 1010.20 1010.16 1010.20 1010.28 1010.12 1010.12 1010.36 1010.56 1010.68 1010.68 1010.48 1010.64 1010.88 1010.92 1011.24 1011.60 1011.64 1011.76 1011.52 1011.24 1011.32 1011.36 1011.92 1011.28 1011.04 1011.08 1011.12 1011.16 1011.20 1011.28 1011.36 1011.48 1011.48 1011.44 1011.20 1011.00 1010.96 1011.00 1011.12 1011.08 1010.92 1010.96 1011.16 1011.08 1011.28 1011.32 1011.36 1011.48 1011.64 1011.80 1012.04 1012.16 1012.36 1012.56 1012.76 1012.96 1013.08 1013.32 1013.60 1013.76
1010.44 1010.44 1010.48 1010.32 1010.24 1009.96 1009.92 1010.04 1010.20 1010.16 1010.44 1010.40 1010.80 1010.56 1010.48 1010.68 1010.32 1011.12 1011.24 1011.60 1011.72 1011.48 1011.40 1011.32 1011.36 1011.40 1011.44 1011.04 1010.92 1011.00 1011.00 1011.00 1010.96 1011.00 1010.96 1010.88 1011.04 1010.92 1010.96 1010.96 1010.88 1010.68 1010.96 1010.96 1010.64 1010.72 1010.76 1011.00 1011.20 1011.40 1011.48 1011.64 1011.72 1011.76 1011.96 1012.20 1012.32 1012.52 1012.76 1012.96 1013.24 1013.32 1013.48
1010.48 1010.28 1010.40 1010.48 1010.44 1010.44 1010.28 1010.12 1010.00 1009.96 1010.00 1010.16 1010.36 1010.32 1010.52 1010.48 1010.48 1010.56 1011.24 1011.24 1011.40 1011.40 1011.16 1011.12 1011.00 1010.92 1010.92 1010.88 1010.68 1010.52 1010.64 1010.68 1010.72 1010.64 1010.64 1010.52 1010.48 1010.60 1010.76 1010.84 1010.80 1010.72 1010.60 1010.60 1010.48 1010.60 1010.64 1010.76 1010.88 1011.20 1011.52 1011.64 1011.80 1011.76 1011.88 1012.00 1012.24 1012.32 1012.60 1012.80 1013.20 1013.24 1013.44
1010.56 1010.60 1010.68 1010.64 1010.56 1010.44 1010.28 1010.16 1010.08 1009.92 1009.96 1010.04 1010.00 1010.12 1010.20 1010.36 1010.32 1010.56 1011.16 1011.68 1011.08 1011.04 1011.24 1011.12 1010.88 1010.80 1010.96 1010.68 1010.56 1010.32 1010.16 1010.24 1010.28 1010.36 1010.40 1010.36 1010.40 1010.52 1010.52 1010.48 1010.48 1010.56 1010.48 1010.52 1010.36 1010.44 1010.48 1010.56 1010.68 1010.88 1011.28 1011.48 1011.68 1011.72 1011.76 1011.96 1012.04 1012.20 1012.44 1012.72 1013.04 1013.20 1013.32
1010.56 1010.32 1010.24 1010.20 1010.28 1010.08 1010.24 1010.32 1010.12 1010.00 1009.80 1009.64 1009.64 1009.68 1009.84 1009.96 1010.12 1010.24 1010.48 1011.28 1011.36 1011.08 1010.88 1010.84 1010.56 1010.60 1010.64 1010.40 1010.32 1010.36 1010.40 1010.00 1010.12 1010.28 1010.16 1010.12 1010.08 1010.28 1010.20 1010.16 1010.16 1010.20 1010.12 1010.08 1010.32 1010.28 1010.48 1010.60 1010.60 1010.64 1010.84 1011.08 1011.32 1011.52 1011.60 1011.80 1011.96 1012.04 1012.24 1012.60 1013.04 1013.12 1013.20
1010.44 1010.56 1010.20 1010.08 1010.12 1010.08 1010.12 1010.32 1010.20 1010.08 1009.88 1009.80 1009.92 1009.92 1010.00 1009.92 1009.96 1010.16 1010.56 1010.96 1010.52 1010.68 1011.00 1010.60 1010.44 1010.36 1010.40 1010.36 1010.16 1010.20 1010.16 1010.00 1009.68 1009.84 1009.92 1010.00 1009.88 1010.08 1010.00 1010.00 1010.04 1009.92 1010.00 1010.12 1010.04 1010.00 1010.20 1010.44 1010.52 1010.48 1010.52 1010.76 1010.96 1011.16 1011.28 1011.44 1011.72 1011.84 1012.08 1012.60 1012.96 1013.08 1012.96
1010.44 1010.52 1010.60 1010.48 1010.40 1010.28 1010.36 1010.32 1010.36 1010.24 1010.24 1010.24 1010.24 1010.20 1010.16 1010.12 1010.20 1010.20 1010.16 1010.20 1010.48 1010.64 1010.48 1009.92 1009.80 1009.84 1010.08 1010.28 1010.28 1010.24 1009.96 1009.76 1009.72 1009.60 1009.72 1009.92 1009.84 1009.84 1009.72 1009.60 1009.68 1009.64 1009.88 1009.92 1009.80 1009.80 1009.92 1010.16 1010.36 1010.48 1010.56 1010.68 1010.80 1010.96 1011.12 1011.36 1011.52 1011.64 1011.96 1012.28 1012.60 1012.92 1012.92
1010.56 1010.72 1010.76 1010.64 1010.60 1010.52 1010.56 1010.40 1010.40 1010.32 1010.44 1010.52 1010.52 1010.48 1010.44 1010.40 1010.32 1010.20 1010.04 1010.00 1010.24 1010.56 1010.32 1010.08 1009.96 1009.80 1009.92 1010.16 1010.12 1010.00 1010.04 1009.96 1009.76 1009.72 1009.64 1009.76 1009.72 1009.76 1009.60 1009.32 1009.36 1009.40 1009.64 1009.60 1009.52 1009.76 1009.88 1009.88 1010.04 1010.28 1010.60 1010.88 1010.96 1011.00 1011.12 1011.32 1011.52 1011.60 1011.68 1012.00 1012.32 1012.60 1012.80
1010.68 1010.76 1010.80 1010.80 1010.88 1010.84 1010.72 1010.76 1010.76 1010.80 1010.68 1010.72 1010.64 1010.56 1010.56 1010.48 1010.40 1010.24 1010.12 1009.92 1009.96 1010.04 1009.92 1009.96 1009.80 1009.84 1009.84 1009.96 1010.16 1010.12 1010.20 1010.16 1009.96 1010.00 1009.72 1009.48 1009.36 1009.52 1009.44 1009.36 1009.20 1009.16 1009.44 1009.52 1009.56 1009.52 1009.64 1009.88 1009.84 1010.12 1010.44 1010.76 1010.96 1011.00 1011.12 1011.20 1011.32 1011.60 1011.72 1011.72 1011.76 1012.00 1012.20
1010.76 1010.92 1011.12 1010.96 1010.96 1010.80 1011.04 1010.84 1010.60 1010.68 1010.76 1010.60 1010.56 1010.64 1010.56 1010.44 1010.40 1010.28 1010.16 1010.00 1009.72 1009.92 1010.04 1009.92 1009.72 1009.68 1009.76 1009.76 1010.00 1010.12 1010.24 1010.28 1010.24 1010.08 1010.00 1009.48 1009.16 1009.12 1009.16 1009.20 1009.16 1009.08 1009.12 1009.24 1009.52 1009.56 1009.48 1009.72 1009.92 1010.04 1010.36 1010.52 1010.68 1010.80 1010.92 1011.04 1011.16 1011.36 1011.48 1011.48 1011.56 1011.68 1011.88
1010.72 1010.88 1011.00 1011.00 1010.92 1010.84 1010.68 1010.72 1010.84 1010.72 1010.72 1010.80 1010.72 1010.64 1010.56 1010.52 1010.44 1010.32 1010.20 1010.08 1009.84 1009.84 1009.96 1009.88 1009.96 1010.04 1009.84 1009.56 1009.68 1009.92 1010.16 1010.28 1010.28 1010.20 1010.04 1009.92 1009.48 1008.96 1008.84 1008.92 1009.00 1009.00 1009.00 1008.96 1009.24 1009.48 1009.56 1009.56 1009.92 1010.00 1010.20 1010.40 1010.52 1010.68 1010.80 1010.92 1011.04 1011.24 1011.32 1011.44 1011.52 1011.64 1011.76
1010.64 1010.72 1010.68 1010.64 1010.64 1010.88 1011.04 1010.88 1010.88 1010.88 1010.88 1010.92 1010.92 1010.68 1010.60 1010.40 1010.36 1010.36 1010.32 1010.32 1010.00 1009.80 1009.88 1009.84 1010.08 1010.08 1010.00 1009.76 1009.72 1009.80 1009.88 1009.92 1009.84 1009.96 1010.16 1010.24 1010.08 1010.04 1009.36 1009.00 1008.68 1008.72 1008.76 1008.76 1009.16 1009.40 1009.44 1009.60 1009.76 1009.92 1010.08 1010.24 1010.40 1010.60 1010.60 1010.80 1011.00 1011.12 1011.24 1011.40 1011.52 1011.64 1011.76
1010.72 1010.72 1010.64 1010.64 1010.76 1010.92 1010.92 1011.04 1011.04 1010.96 1010.88 1010.92 1010.92 1011.00 1010.84 1010.68 1010.56 1010.44 1010.36 1010.20 1010.04 1009.88 1009.92 1009.84 1009.96 1010.08 1010.20 1010.24 1010.04 1009.84 1009.64 1009.48 1009.52 1009.80 1010.48 1010.32 1009.68 1009.48 1009.64 1009.12 1008.76 1008.84 1008.76 1008.84 1009.00 1009.08 1009.24 1009.28 1009.40 1009.64 1009.96 1010.16 1010.36 1010.52 1010.64 1010.88 1010.96 1010.96 1011.16 1011.40 1011.48 1011.48 1011.72
1010.84 1010.92 1010.88 1010.80 1010.84 1011.04 1011.04 1011.08 1011.00 1011.00 1011.00 1011.04 1011.16 1011.16 1011.08 1011.00 1010.84 1010.68 1010.64 1010.48 1010.24 1010.12 1009.88 1009.80 1009.92 1010.12 1010.28 1010.36 1010.20 1009.88 1009.60 1009.52 1009.56 1009.84 1010.12 1010.20 1010.32 1010.20 1009.92 1009.76 1009.44 1009.12 1008.96 1009.00 1009.04 1009.08 1009.16 1009.32 1009.44 1009.64 1009.84 1010.32 1010.44 1010.56 1010.76 1010.84 1010.76 1010.76 1010.88 1010.96 1011.24 1011.44 1011.56
1010.96 1010.96 1010.88 1010.84 1010.88 1011.08 1011.12 1011.08 1011.04 1011.08 1011.24 1011.28 1011.20 1011.12 1011.08 1011.04 1010.92 1010.72 1010.60 1010.40 1010.32 1010.20 1009.92 1009.84 1010.04 1010.04 1010.08 1010.12 1010.04 1009.96 1009.80 1009.76 1009.80 1010.08 1010.28 1010.12 1010.36 1010.24 1010.04 1009.96 1009.84 1009.76 1009.48 1009.20 1009.08 1009.20 1009.28 1009.44 1009.68 1009.80 1009.76 1009.88 1010.20 1010.56 1010.60 1010.72 1010.64 1010.68 1010.84 1010.92 1010.92 1011.08 1011.44
1010.96 1011.08 1011.04 1011.04 1011.16 1011.08 1011.24 1011.28 1011.32 1011.36 1011.44 1011.36 1011.20 1011.12 1011.08 1011.08 1010.96 1010.88 1010.84 1010.56 1010.40 1010.20 1009.92 1009.92 1009.88 1009.88 1009.88 1009.88 1009.76 1009.84 1010.16 1010.36 1010.20 1010.00 1009.88 1009.72 1009.88 1010.04 1010.08 1010.20 1010.36 1010.40 1010.28 1009.92 1009.52 1009.32 1009.28 1009.56 1009.80 1009.92 1009.92 1009.88 1010.04 1010.28 1010.56 1010.72 1010.64 1010.68 1010.84 1010.92 1010.88 1010.92 1011.20
1010.88 1010.88 1011.08 1011.16 1011.24 1011.20 1011.16 1011.36 1011.40 1011.44 1011.44 1011.32 1011.28 1011.20 1011.04 1010.92 1011.00 1011.04 1010.92 1010.84 1010.48 1010.20 1010.16 1010.12 1010.00 1009.88 1009.80 1009.76 1009.84 1009.80 1009.88 1009.92 1010.00 1009.92 1009.80 1009.68 1009.60 1009.76 1010.12 1010.20 1010.24 1010.36 1010.44 1010.52 1010.28 1010.20 1010.08 1009.84 1009.76 1009.96 1009.96 1010.00 1010.16 1010.12 1010.16 1010.44 1010.56 1010.68 1010.88 1011.00 1010.92 1010.96 1011.08
1010.64 1010.80 1010.92 1010.92 1010.96 1011.04 1011.20 1011.20 1011.36 1011.36 1011.32 1011.20 1011.12 1010.96 1010.88 1010.88 1011.04 1010.92 1010.72 1010.64 1010.48 1010.52 1010.44 1010.36 1010.36 1010.36 1010.20 1009.92 1009.72 1009.60 1009.60 1009.76 1009.76 1009.76 1009.68 1009.52 1009.52 1009.56 1009.84 1009.84 1010.16 1010.36 1010.56 1010.72 1010.60 1010.56 1010.84 1011.24 1010.96 1010.20 1010.08 1010.08 1010.20 1010.20 1010.08 1010.44 1010.60 1010.64 1010.88 1011.08 1011.08 1011.04 1011.12
1010.76 1010.84 1011.04 1010.92 1011.16 1011.16 1011.28 1011.40 1011.48 1011.48 1011.32 1011.24 1011.12 1011.04 1011.00 1011.00 1010.88 1010.84 1010.76 1010.68 1010.80 1010.60 1010.64 1010.56 1010.44 1010.40 1010.28 1010.08 1009.76 1009.60 1009.56 1009.40 1009.36 1009.56 1009.64 1009.64 1009.48 1009.52 1009.64 1009.84 1010.12 1010.52 1010.96 1011.32 1011.12 1010.60 1010.28 1010.40 1010.76 1010.96 1010.88 1010.44 1010.16 1010.28 1010.68 1011.16 1011.28 1011.24 1011.20 1011.24 1011.28 1011.28 1011.16
1010.52 1010.76 1011.08 1011.00 1011.12 1010.96 1011.32 1011.36 1011.52 1011.52 1011.44 1011.04 1011.08 1011.12 1011.04 1011.12 1010.92 1011.00 1011.04 1010.76 1010.84 1010.80 1010.68 1010.68 1010.72 1010.68 1010.56 1010.40 1010.08 1009.80 1009.56 1009.52 1009.52 1009.60 1009.80 1009.76 1009.48 1009.60 1009.84 1010.00 1010.24 1010.52 1010.64 1010.92 1010.96 1010.80 1010.68 1010.84 1010.64 1010.76 1010.88 1010.96 1010.84 1010.76 1011.56 1011.80 1011.76 1011.56 1011.48 1011.44 1011.36 1011.32 1011.32
1010.56 1010.76 1010.68 1010.60 1010.44 1010.72 1010.92 1010.96 1011.12 1011.12 1011.04 1011.12 1011.20 1011.24 1011.24 1011.08 1011.04 1011.12 1011.04 1011.08 1011.00 1010.92 1011.00 1011.04 1011.20 1011.12 1010.96 1010.72 1010.36 1010.08 1009.76 1009.60 1009.64 1009.60 1009.72 1009.84 1009.88 1009.72 1009.76 1009.96 1010.04 1010.24 1010.24 1010.60 1010.80 1011.08 1011.20 1010.92 1010.64 1010.60 1010.84 1011.00 1011.04 1011.16 1011.68 1011.96 1011.92 1011.76 1011.68 1011.64 1011.56 1011.52 1011.48
1010.24 1010.32 1010.16 1010.24 1010.12 1010.36 1010.60 1010.80 1010.84 1010.80 1011.04 1011.16 1011.24 1011.24 1011.12 1011.04 1011.08 1011.16 1011.20 1011.28 1011.24 1011.36 1011.52 1011.60 1011.64 1011.44 1011.24 1011.04 1010.76 1010.52 1010.20 1009.96 1009.72 1009.80 1009.72 1009.76 1010.04 1009.76 1009.60 1009.36 1009.40 1009.76 1009.84 1010.32 1010.56 1010.76 1010.76 1010.76 1010.72 1010.72 1010.72 1010.80 1010.92 1010.84 1011.32 1011.80 1012.00 1011.80 1011.56 1011.60 1011.64 1011.60 1011.56
1010.24 1009.92 1010.12 1010.12 1010.60 1011.12 1010.96 1011.00 1011.04 1010.92 1010.92 1011.12 1011.52 1011.32 1011.00 1010.96 1011.08 1011.28 1011.48 1011.56 1011.72 1011.84 1012.00 1011.96 1011.88 1011.76 1011.56 1011.32 1011.04 1010.72 1010.40 1010.16 1009.88 1009.72 1009.68 1009.68 1009.64 1009.68 1009.48 1009.32 1009.40 1009.48 1009.64 1010.00 1010.44 1010.76 1010.68 1010.72 1010.76 1010.72 1010.72 1010.72 1010.68 1010.60 1011.16 1011.84 1012.24 1012.16 1011.84 1011.64 1011.56 1011.52 1011.60
1010.36 1010.08 1010.04 1009.72 1010.04 1010.04 1010.64 1010.68 1010.76 1010.88 1011.08 1011.32 1011.48 1011.08 1011.00 1011.12 1011.36 1011.60 1011.80 1011.92 1011.96 1012.12 1012.20 1012.20 1012.04 1011.76 1011.48 1011.24 1011.00 1010.80 1010.60 1010.32 1010.16 1009.92 1009.64 1009.52 1009.36 1009.32 1009.28 1009.04 1009.12 1009.52 1009.76 1009.96 1010.12 1010.52 1010.56 1010.48 1010.72 1010.88 1010.88 1010.68 1010.68 1010.88 1011.28 1011.92 1012.28 1012.28 1012.04 1011.84 1011.68 1011.56 1011.64
1009.96 1010.08 1010.08 1010.12 1010.48 1010.28 1010.40 1010.52 1010.76 1010.88 1010.92 1011.20 1011.20 1011.28 1011.36 1011.48 1011.72 1011.92 1012.04 1012.12 1012.24 1012.32 1012.28 1012.12 1011.92 1011.76 1011.64 1011.40 1011.20 1011.08 1010.88 1010.64 1010.44 1010.36 1010.12 1010.00 1009.88 1009.60 1009.52 1009.44 1009.44 1009.40 1009.60 1009.80 1009.80 1010.00 1010.48 1010.80 1010.96 1011.00 1011.12 1011.04 1011.08 1011.24 1011.48 1011.80 1012.24 1012.40 1012.12 1011.84 1011.76 1011.64 1011.64
1009.80 1009.56 1009.84 1010.16 1010.32 1010.48 1010.60 1010.52 1010.64 1010.52 1010.84 1011.04 1011.20 1011.52 1011.60 1011.84 1012.12 1012.16 1012.24 1012.36 1012.44 1012.32 1012.08 1012.04 1011.92 1011.84 1011.72 1011.56 1011.44 1011.32 1011.16 1010.92 1010.68 1010.60 1010.60 1010.44 1010.20 1010.08 1010.08 1009.92 1009.84 1009.84 1009.88 1010.04 1010.16 1010.24 1010.52 1010.72 1010.96 1011.24 1011.48 1011.60 1011.64 1011.72 1012.00 1012.00 1012.12 1012.36 1012.24 1011.92 1011.72 1011.60 1011.36
1010.28 1010.04 1010.32 1010.44 1010.48 1010.36 1010.44 1010.56 1010.52 1011.16 1011.24 1011.20 1011.24 1011.56 1011.64 1011.80 1012.20 1012.24 1012.28 1012.52 1012.44 1012.00 1011.96 1011.96 1011.88 1011.80 1011.64 1011.64 1011.64 1011.56 1011.44 1011.24 1011.04 1010.92 1010.84 1010.76 1010.64 1010.60 1010.72 1010.56 1010.44 1010.48 1010.56 1010.72 1010.88 1011.16 1011.28 1011.32 1011.40 1011.60 1011.92 1012.16 1012.32 1012.40 1012.40 1012.48 1012.56 1012.76 1012.72 1012.16 1011.80 1011.68 1011.84
1010.16 1010.20 1010.28 1010.20 1010.36 1010.60 1010.72 1011.12 1010.92 1011.32 1011.44 1011.48 1011.40 1011.40 1011.56 1011.76 1012.24 1012.32 1012.36 1012.44 1012.00 1011.84 1011.76 1011.76 1011.68 1011.60 1011.60 1011.60 1011.60 1011.52 1011.56 1011.60 1011.56 1011.40 1011.20 1011.08 1010.96 1010.96 1011.12 1011.12 1011.00 1010.96 1011.16 1011.32 1011.36 1011.56 1011.80 1011.64 1011.76 1012.08 1012.40 1012.68 1013.00 1013.20 1013.12 1012.84 1012.80 1013.16 1013.80 1012.68 1011.96 1011.92 1012.48
1010.64 1010.76 1010.80 1011.00 1011.04 1010.80 1010.84 1010.92 1011.08 1011.36 1011.40 1011.44 1011.48 1011.48 1011.44 1011.56 1012.08 1012.36 1012.48 1012.12 1011.68 1011.68 1011.72 1011.76 1011.68 1011.64 1011.64 1011.52 1011.40 1011.40 1011.48 1011.72 1011.92 1011.96 1011.92 1011.76 1011.64 1011.60 1011.48 1011.48 1011.36 1011.48 1011.56 1011.60 1011.72 1011.88 1012.04 1012.08 1012.28 1012.64 1012.96 1013.36 1013.56 1013.48 1013.56 1013.52 1012.84 1012.96 1014.88 1013.52 1011.12 1012.24 1012.96
1010.76 1010.76 1010.80 1010.96 1011.08 1010.96 1010.92 1011.00 1011.12 1011.40 1011.76 1011.84 1011.72 1011.80 1011.88 1011.80 1011.80 1012.28 1012.16 1011.68 1011.56 1011.48 1011.56 1011.64 1011.76 1011.80 1011.88 1011.88 1011.80 1011.64 1011.48 1011.68 1012.08 1012.24 1012.28 1012.28 1012.20 1012.24 1012.28 1012.20 1011.96 1011.84 1011.84 1011.80 1011.80 1011.80 1011.92 1012.12 1012.28 1012.80 1013.28 1013.52 1013.72 1013.88 1013.76 1014.00 1014.08 1013.76 1014.20 1014.52 1013.12 1012.96 1013.56
1011.16 1011.28 1011.44 1011.48 1011.36 1011.20 1011.32 1011.44 1011.80 1012.12 1012.28 1012.48 1012.28 1012.24 1012.32 1012.40 1012.20 1011.96 1011.80 1011.68 1011.44 1011.56 1011.60 1011.60 1011.72 1011.96 1012.00 1012.00 1011.92 1012.00 1012.28 1012.44 1012.52 1012.72 1012.80 1012.84 1012.76 1012.76 1012.84 1012.88 1012.92 1012.80 1012.64 1012.44 1012.32 1012.32 1012.40 1012.72 1013.12 1013.56 1013.80 1013.92 1014.16 1014.36 1014.32 1014.60 1014.84 1014.56 1014.68 1014.56 1014.40 1014.68 1014.84
1011.52 1011.64 1011.64 1011.56 1011.52 1011.56 1011.76 1012.04 1012.32 1012.60 1012.80 1012.96 1012.80 1012.60 1012.44 1012.32 1012.28 1012.16 1012.04 1011.88 1011.72 1011.56 1011.72 1011.92 1011.92 1011.96 1012.00 1012.00 1012.04 1012.24 1012.52 1012.92 1013.16 1013.28 1013.52 1013.80 1014.00 1014.08 1013.84 1013.56 1013.52 1013.76 1013.92 1013.80 1013.56 1013.24 1013.36 1013.48 1013.72 1014.00 1014.32 1014.56 1014.76 1014.92 1014.96 1015.08 1015.00 1015.16 1015.24 1015.28 1015.16 1015.24 1015.24
1011.56 1011.76 1011.88 1012.04 1012.00 1012.00 1012.32 1012.44 1012.72 1012.84 1012.96 1013.00 1012.76 1012.68 1012.64 1012.48 1012.16 1011.96 1012.08 1012.04 1012.00 1011.96 1011.88 1012.00 1011.92 1011.76 1011.76 1011.84 1012.00 1012.44 1012.60 1012.92 1013.24 1013.44 1013.72 1014.16 1014.68 1015.24 1015.56 1015.40 1014.56 1014.24 1014.52 1014.72 1014.56 1013.96 1013.72 1013.92 1014.28 1014.48 1014.68 1014.84 1015.16 1015.36 1015.52 1015.44 1015.52 1015.76 1015.64 1015.68 1015.64 1015.52 1015.64
1011.56 1011.80 1012.04 1012.04 1012.04 1012.20 1012.40 1012.60 1012.76 1012.92 1013.00 1012.96 1012.76 1012.68 1012.64 1012.60 1012.56 1012.24 1011.96 1011.96 1011.96 1012.04 1012.16 1011.92 1011.68 1011.60 1011.64 1011.68 1011.92 1012.16 1012.52 1012.92 1013.20 1013.52 1013.84 1014.20 1014.60 1015.08 1015.64 1015.96 1015.88 1015.48 1015.20 1015.40 1015.12 1014.60 1014.48 1014.36 1014.76 1015.00 1015.08 1015.28 1015.68 1015.68 1015.60 1015.80 1016.20 1016.12 1015.88 1015.96 1016.04 1016.12 1016.28
1011.56 1011.88 1012.12 1012.04 1012.28 1012.44 1012.64 1012.76 1012.76 1012.88 1013.00 1012.92 1012.80 1012.80 1012.72 1012.68 1012.60 1012.64 1012.32 1012.04 1012.04 1012.16 1012.28 1012.16 1012.16 1012.04 1012.28 1012.40 1012.44 1012.44 1012.52 1012.88 1013.48 1013.88 1014.24 1014.56 1014.88 1015.20 1015.52 1015.88 1016.32 1016.56 1016.44 1016.08 1015.92 1015.68 1015.60 1015.52 1015.52 1015.48 1015.56 1015.48 1015.92 1016.44 1016.36 1016.32 1016.32 1016.24 1016.32 1016.36 1016.60 1016.80 1016.92
1011.28 1011.64 1011.84 1012.04 1012.32 1012.52 1012.72 1012.84 1012.96 1013.04 1013.08 1012.96 1012.96 1012.92 1012.72 1012.76 1012.72 1012.56 1012.28 1012.04 1012.04 1012.20 1012.40 1012.52 1012.68 1012.80 1012.80 1012.92 1013.00 1012.92 1012.84 1013.08 1013.56 1013.88 1014.28 1014.64 1014.88 1015.16 1015.48 1015.76 1015.96 1016.44 1016.76 1016.60 1016.36 1016.36 1016.32 1016.32 1016.32 1016.32 1016.32 1016.32 1016.32 1016.48 1016.92 1016.76 1016.60 1016.64 1016.68 1016.72 1016.80 1017.00 1017.12
Thickness
5789 5788 5786 5784 5784 5783 5783 5785 5787 5788 5786 5785 5786 5789 5790 5788 5785 5785 5786 5785 5784 5786 5789 5787 5786 5788 5788 5789 5790 5790 5790 5790 5790 5790 5791 5792 5793 5795 5794 5795 5796 5796 5797 5797 5797 5799 5802 5804 5804 5804 5804 5803 5801 5801 5801 5800 5799 5797 5796 5795 5794 5792 5791
5787 5785 5786 5786 5784 5783 5783 5784 5785 5785 5785 5784 5786 5788 5788 5786 5785 5784 5783 5783 5783 5785 5788 5788 5787 5787 5788 5791 5791 5792 5792 5793 5793 5793 5794 5794 5795 5797 5798 5799 5799 5799 5801 5802 5802 5803 5804 5805 5806 5805 5805 5804 5803 5803 5802 5800 5799 5797 5796 5796 5794 5793 5792
5784 5782 5782 5782 5783 5784 5783 5784 5784 5785 5785 5784 5784 5786 5787 5787 5787 5785 5783 5781 5780 5783 5788 5789 5787 5786 5788 5791 5792 5792 5793 5794 5794 5794 5795 5795 5796 5798 5800 5802 5803 5803 5804 5805 5806 5805 5806 5805 5806 5805 5806 5805 5804 5804 5802 5801 5800 5798 5797 5796 5795 5794 5792
5779 5780 5780 5779 5782 5783 5783 5784 5784 5784 5784 5782 5783 5785 5785 5786 5788 5787 5784 5781 5779 5782 5787 5787 5786 5786 5789 5792 5793 5793 5794 5794 5795 5796 5797 5798 5799 5800 5801 5801 5803 5805 5805 5806 5808 5808 5808 5807 5806 5805 5805 5805 5804 5804 5803 5802 5801 5799 5798 5797 5795 5795 5794
5776 5777 5777 5777 5779 5779 5781 5783 5783 5784 5784 5783 5784 5784 5784 5785 5786 5785 5782 5782 5782 5784 5785 5785 5787 5789 5790 5791 5793 5795 5796 5796 5796 5798 5799 5800 5801 5802 5802 5802 5804 5805 5805 5807 5808 5809 5809 5808 5807 5805 5804 5803 5803 5803 5803 5802 5801 5800 5799 5797 5795 5795 5795
5775 5775 5775 5775 5776 5777 5779 5780 5781 5784 5784 5784 5786 5784 5785 5784 5784 5784 5780 5778 5782 5784 5783 5784 5788 5790 5790 5791 5793 5795 5798 5798 5799 5799 5800 5802 5802 5802 5803 5804 5805 5806 5806 5808 5808 5809 5809 5808 5808 5806 5805 5804 5803 5803 5803 5802 5801 5801 5799 5798 5796 5795 5795
5774 5775 5775 5776 5776 5777 5778 5778 5779 5782 5783 5785 5786 5785 5786 5785 5784 5785 5780 5776 5781 5784 5784 5786 5789 5790 5790 5792 5794 5795 5797 5800 5800 5800 5800 5802 5803 5803 5804 5806 5806 5807 5808 5809 5809 5809 5808 5808 5808 5808 5807 5806 5805 5804 5803 5802 5802 5801 5800 5798 5795 5795 5795
5772 5773 5774 5775 5776 5776 5776 5776 5776 5778 5780 5781 5781 5781 5783 5784 5784 5784 5781 5780 5781 5783 5785 5788 5790 5790 5789 5791 5793 5794 5796 5800 5802 5802 5802 5802 5803 5804 5805 5806 5807 5808 5809 5808 5809 5810 5810 5809 5809 5809 5809 5808 5806 5806 5805 5804 5803 5801 5800 5798 5795 5795 5795
5772 5771 5771 5772 5773 5772 5772 5773 5773 5776 5776 5776 5777 5778 5779 5780 5781 5781 5782 5782 5781 5781 5785 5789 5792 5791 5790 5789 5791 5794 5795 5798 5801 5802 5802 5801 5802 5803 5805 5807 5808 5809 5808 5809 5810 5811 5810 5810 5809 5808 5808 5807 5807 5807 5806 5804 5803 5802 5801 5799 5796 5795 5795
5771 5768 5768 5768 5769 5770 5769 5770 5771 5772 5772 5772 5773 5774 5775 5776 5777 5779 5781 5782 5782 5781 5783 5787 5790 5791 5790 5788 5789 5792 5793 5794 5797 5800 5801 5801 5802 5802 5805 5807 5809 5809 5809 5809 5811 5811 5810 5811 5810 5809 5806 5805 5804 5805 5805 5803 5803 5802 5801 5800 5798 5797 5796
5768 5766 5766 5766 5766 5766 5766 5766 5767 5767 5767 5768 5769 5770 5771 5773 5774 5776 5778 5780 5781 5781 5783 5785 5787 5789 5790 5788 5788 5789 5790 5792 5794 5796 5798 5801 5802 5802 5802 5805 5808 5809 5809 5809 5809 5810 5810 5810 5809 5808 5806 5804 5803 5803 5803 5802 5802 5801 5801 5801 5800 5799 5798
5766 5765 5764 5763 5764 5764 5763 5765 5765 5764 5765 5766 5767 5767 5768 5770 5772 5773 5775 5777 5780 5780 5780 5782 5785 5786 5788 5789 5788 5787 5788 5788 5789 5791 5794 5798 5801 5802 5802 5803 5805 5807 5808 5808 5807 5808 5809 5809 5808 5808 5806 5804 5803 5802 5802 5802 5801 5800 5800 5800 5801 5800 5799
5765 5765 5763 5763 5764 5762 5762 5763 5762 5763 5762 5762 5764 5765 5766 5768 5768 5770 5771 5774 5777 5777 5778 5779 5781 5782 5785 5788 5789 5787 5786 5786 5786 5787 5788 5792 5795 5799 5801 5803 5803 5804 5806 5807 5806 5805 5807 5807 5806 5805 5805 5804 5803 5802 5802 5801 5800 5799 5799 5799 5799 5798 5798
5764 5764 5763 5764 5763 5760 5761 5760 5760 5760 5760 5760 5760 5761 5764 5766 5766 5767 5768 5769 5772 5774 5775 5776 5777 5778 5780 5784 5785 5785 5785 5786 5786 5785 5783 5786 5791 5794 5798 5801 5803 5803 5804 5805 5804 5803 5804 5804 5804 5804 5803 5802 5801 5801 5801 5801 5799 5798 5798 5797 5797 5797 5796
5763 5762 5762 5762 5761 5759 5758 5757 5757 5758 5758 5758 5757 5757 5759 5761 5762 5764 5764 5766 5768 5770 5772 5773 5774 5774 5775 5777 5780 5782 5784 5785 5785 5783 5781 5784 5789 5791 5794 5798 5801 5801 5802 5802 5802 5801 5802 5802 5802 5802 5801 5800 5799 5799 5799 5798 5798 5798 5798 5797 5797 5796 5795
5761 5760 5759 5760 5759 5756 5755 5754 5755 5755 5755 5754 5754 5754 5755 5756 5758 5760 5760 5762 5764 5765 5767 5770 5770 5771 5772 5772 5775 5778 5781 5783 5782 5780 5780 5782 5783 5783 5787 5791 5794 5796 5798 5799 5799 5799 5800 5799 5799 5799 5798 5797 5796 5796 5796 5796 5797 5798 5798 5798 5797 5796 5794
5759 5757 5757 5757 5755 5754 5753 5752 5752 5752 5751 5751 5751 5752 5753 5753 5755 5756 5757 5759 5760 5761 5765 5766 5766 5768 5768 5769 5772 5774 5775 5776 5776 5776 5779 5782 5779 5778 5781 5784 5785 5788 5791 5794 5796 5797 5797 5796 5794 5795 5796 5796 5795 5793 5793 5793 5795 5796 5796 5797 5796 5795 5794
5757 5755 5754 5754 5752 5751 5750 5748 5748 5747 5747 5748 5749 5750 5751 5751 5752 5753 5754 5755 5757 5759 5761 5762 5763 5764 5766 5767 5769 5770 5769 5769 5771 5773 5777 5781 5780 5778 5778 5777 5778 5780 5781 5785 5789 5791 5792 5792 5791 5790 5791 5793 5792 5792 5791 5790 5792 5793 5793 5793 5794 5794 5792
5755 5753 5753 5752 5750 5750 5748 5746 5746 5745 5745 5746 5746 5747 5749 5749 5749 5749 5751 5752 5754 5756 5757 5758 5759 5760 5762 5764 5765 5766 5767 5767 5769 5772 5773 5777 5778 5777 5777 5776 5776 5776 5776 5777 5778 5780 5781 5784 5786 5787 5787 5788 5788 5788 5790 5789 5789 5790 5789 5789 5790 5791 5790
5753 5752 5752 5750 5749 5748 5746 5744 5743 5742 5743 5744 5744 5746 5747 5747 5747 5747 5749 5750 5751 5752 5752 5752 5754 5754 5756 5760 5762 5764 5764 5766 5768 5769 5770 5772 5774 5774 5776 5776 5773 5770 5768 5768 5770 5773 5775 5775 5777 5780 5782 5784 5784 5784 5785 5785 5785 5786 5785 5784 5785 5786 5786
5752 5750 5749 5748 5747 5745 5743 5742 5740 5739 5740 5741 5743 5744 5743 5744 5745 5745 5746 5746 5747 5748 5748 5748 5748 5749 5751 5755 5759 5761 5762 5763 5765 5765 5765 5767 5768 5770 5772 5771 5769 5764 5761 5761 5764 5771 5774 5774 5773 5775 5776 5778 5780 5780 5778 5777 5778 5779 5780 5780 5780 5780 5781
5750 5748 5745 5745 5745 5743 5741 5740 5738 5738 5738 5739 5740 5740 5740 5740 5741 5741 5741 5743 5743 5744 5745 5744 5744 5744 5745 5748 5752 5756 5759 5760 5761 5760 5760 5761 5763 5764 5764 5764 5763 5761 5760 5760 5761 5764 5766 5766 5768 5769 5769 5770 5773 5773 5770 5770 5771 5772 5773 5775 5775 5775 5775
5748 5746 5745 5747 5746 5744 5742 5739 5739 5738 5737 5737 5736 5735 5736 5737 5738 5738 5738 5738 5739 5739 5740 5739 5738 5738 5739 5742 5746 5749 5753 5755 5756 5756 5755 5754 5756 5757 5759 5760 5759 5760 5761 5760 5758 5757 5758 5760 5763 5765 5765 5765 5766 5767 5765 5764 5765 5767 5768 5769 5769 5769 5769
5746 5746 5746 5746 5744 5742 5739 5738 5737 5736 5735 5734 5732 5732 5734 5735 5735 5735 5734 5734 5734 5733 5732 5731 5731 5733 5734 5736 5738 5742 5746 5749 5751 5752 5751 5750 5751 5754 5758 5761 5760 5760 5760 5758 5754 5754 5755 5758 5760 5760 5761 5762 5763 5764 5763 5760 5759 5761 5762 5763 5763 5763 5764
5745 5746 5746 5745 5742 5738 5735 5735 5735 5734 5733 5731 5729 5730 5733 5732 5732 5731 5729 5728 5728 5726 5726 5726 5726 5728 5729 5731 5733 5736 5739 5743 5745 5746 5748 5749 5750 5753 5756 5759 5759 5757 5756 5753 5750 5749 5751 5754 5756 5756 5757 5758 5759 5761 5760 5755 5752 5754 5757 5758 5759 5759 5760
5741 5742 5743 5744 5740 5737 5736 5733 5732 5732 5730 5727 5726 5728 5730 5728 5728 5726 5724 5723 5723 5721 5721 5721 5722 5724 5726 5727 5729 5731 5734 5736 5738 5740 5743 5746 5748 5750 5753 5756 5756 5753 5752 5750 5748 5747 5748 5750 5750 5750 5752 5754 5754 5756 5755 5750 5747 5748 5750 5752 5753 5754 5755
5740 5741 5740 5738 5735 5735 5734 5731 5730 5730 5727 5726 5725 5725 5725 5723 5721 5720 5719 5719 5717 5717 5717 5718 5719 5720 5721 5722 5724 5725 5727 5731 5732 5734 5736 5738 5742 5745 5747 5750 5751 5750 5750 5749 5748 5747 5747 5747 5746 5746 5746 5748 5748 5749 5748 5746 5743 5742 5744 5747 5748 5749 5751
5738 5739 5737 5734 5731 5731 5731 5730 5730 5727 5725 5724 5723 5720 5720 5719 5716 5716 5715 5713 5713 5714 5715 5715 5716 5717 5717 5717 5719 5719 5721 5724 5726 5727 5728 5730 5734 5737 5739 5742 5744 5745 5745 5743 5742 5742 5740 5741 5742 5740 5739 5739 5740 5740 5740 5739 5738 5736 5737 5741 5744 5746 5748
5733 5733 5733 5731 5729 5728 5727 5726 5725 5722 5719 5720 5720 5717 5717 5715 5713 5713 5711 5709 5711 5713 5713 5713 5713 5713 5713 5714 5713 5714 5715 5717 5720 5722 5721 5723 5727 5729 5729 5732 5735 5736 5736 5735 5735 5734 5732 5733 5734 5733 5731 5730 5729 5730 5730 5730 5730 5728 5728 5734 5739 5740 5740
5729 5728 5728 5727 5725 5724 5722 5720 5719 5718 5715 5716 5716 5715 5715 5713 5710 5709 5708 5707 5709 5711 5710 5710 5711 5710 5710 5710 5710 5711 5710 5710 5711 5713 5714 5716 5719 5721 5722 5723 5727 5728 5727 5727 5728 5728 5726 5726 5726 5723 5722 5721 5719 5719 5719 5722 5724 5720 5716 5726 5735 5733 5729
5724 5722 5721 5720 5720 5720 5719 5717 5717 5714 5711 5712 5712 5711 5712 5712 5708 5705 5705 5706 5709 5709 5708 5708 5707 5707 5706 5706 5707 5708 5707 5705 5704 5704 5706 5708 5709 5712 5715 5716 5719 5721 5721 5721 5722 5722 5721 5721 5720 5717 5715 5713 5712 5712 5712 5713 5719 5716 5709 5715 5729 5728 5720
5719 5718 5717 5715 5714 5715 5715 5714 5712 5709 5707 5706 5707 5706 5707 5707 5706 5704 5704 5706 5707 5707 5706 5705 5704 5702 5701 5701 5702 5703 5702 5701 5699 5698 5698 5700 5701 5703 5706 5707 5709 5712 5713 5715 5716 5717 5716 5715 5714 5711 5709 5707 5706 5707 5706 5704 5707 5709 5704 5704 5710 5710 5705
5713 5712 5712 5710 5710 5711 5709 5707 5704 5702 5700 5699 5699 5701 5700 5700 5701 5702 5702 5704 5705 5704 5703 5702 5701 5699 5699 5698 5698 5697 5696 5694 5693 5692 5691 5691 5693 5695 5696 5698 5699 5700 5702 5705 5707 5708 5708 5707 5705 5702 5701 5700 5699 5699 5698 5695 5695 5698 5697 5694 5693 5692 5690
5709 5707 5706 5706 5706 5704 5703 5700 5697 5695 5694 5693 5694 5695 5696 5696 5697 5698 5698 5699 5700 5700 5699 5698 5698 5698 5697 5696 5695 5693 5691 5688 5686 5686 5684 5682 5682 5682 5684 5687 5690 5689 5689 5690 5693 5697 5697 5696 5696 5694 5692 5692 5691 5689 5689 5689 5688 5689 5688 5686 5686 5686 5686
5706 5703 5702 5701 5701 5699 5697 5695 5692 5691 5690 5690 5691 5692 5692 5693 5694 5695 5695 5695 5696 5696 5696 5696 5697 5698 5696 5696 5694 5691 5689 5686 5684 5682 5681 5677 5674 5672 5671 5674 5678 5680 5679 5678 5681 5686 5689 5688 5688 5687 5685 5685 5683 5682 5682 5682 5681 5682 5681 5679 5679 5680 5679
5703 5700 5699 5698 5697 5696 5693 5691 5690 5689 5687 5688 5689 5689 5688 5689 5689 5690 5693 5693 5693 5693 5693 5694 5696 5697 5695 5695 5693 5691 5688 5686 5682 5679 5677 5674 5671 5668 5665 5665 5667 5669 5670 5670 5671 5675 5678 5679 5679 5679 5679 5678 5675 5674 5676 5675 5674 5675 5676 5675 5673 5671 5670
5701 5698 5696 5695 5693 5691 5689 5688 5687 5686 5685 5685 5686 5685 5685 5686 5686 5686 5688 5690 5691 5690 5690 5691 5692 5691 5691 5689 5688 5688 5687 5684 5679 5676 5673 5670 5667 5666 5663 5661 5660 5659 5660 5662 5663 5665 5666 5667 5668 5668 5670 5671 5668 5667 5667 5668 5668 5668 5669 5668 5667 5664 5662
5700 5697 5694 5693 5691 5688 5686 5685 5684 5683 5683 5683 5682 5682 5682 5683 5682 5684 5686 5688 5689 5688 5687 5688 5687 5686 5686 5685 5684 5684 5684 5682 5678 5674 5671 5669 5666 5664 5662 5660 5658 5655 5653 5654 5656 5658 5658 5659 5659 5660 5660 5662 5663 5662 5661 5661 5662 5662 5662 5662 5660 5659 5658